Voltar ao catálogo

DELTA 1 DEB

AtivoSSO
NORAD 7489·DEBRIS·🇺🇸 United States

Lançado Nov 6, 1973 de Vandenberg Space Force Base

Loading…

Próximas Passagens (próximas 24 horas)

TLE

AtualizadoSource: Space-Track

Época: Sep 14, 2026, 00:42 UTC

1 07489U 73086FV  26257.02950012 -.00000021  00000-0  21385-3 0  9999
2 07489 102.5293 280.2487 0060996 174.3261 214.8981 12.29743468370242

Acompanhe DELTA 1 DEB em tempo real com AllMySat

Download on the App Store